Orbital Elements at Epoch 2459000.5 (2020-May-31.0) TDB
Reference: JPL 31 (heliocentric ecliptic J2000)
Element | Value | Uncertainty (1-sigma) | Units |
e | .0449891873314757 | 4.3638e-08 | |
a | 3.043349823615408 | 1.6909e-08 | au |
q | 2.906431988285561 | 1.3119e-07 | au |
i | 9.150599827450018 | 4.865e-06 | deg |
node | 178.3633979610714 | 2.1834e-05 | deg |
peri | 168.1108859288739 | 4.8766e-05 | deg |
M | 67.77178718966414 | 4.2843e-05 | deg |
tp | 2458635.432914561674 (2019-May-31.93291456) | 0.0002313 | TDB |
period | 1939.216246282507 5.31 | 1.6162e-05 4.425e-08 | d yr |
n | .1856420090797625 | 1.5472e-09 | deg/d |
Q | 3.180267658945255 | 1.767e-08 | au |
|
| | Orbit Determination Parameters
Additional Information
|